STARLINK-11172 [DTC] (60193 NORAD) Tracking and Keplerian Element Data

This shows tracking and keplerian element data for the satellite.

Feedback or suggestion? Click here.




ElementValue
Catalog60193
NameSTARLINK-11172 [DTC]
Epoch Orbit1598
Epoch Day286.83806226
Epoch Year2024
RAAN169.5179
Inclination53.1565
Eccentricity6.27E-05
Argument of Perigee116.8824
Mean Anonmoly243.2258
Mean Motion15.69793357
Decay Rate0.00083197
L11 60193U 24124L 24286.83806226 .00083197 00000+0 68234-3 0 9992
L22 60193 53.1565 169.5179 0000627 116.8824 243.2258 15.69793357 15983



Live tracking and technical data element details for STARLINK-11172 [DTC] (NORAD 60193). STARLINK-11172 [DTC] can be tracked NOW for your location showing map with azimuth and elevation plus other details from your city location.







IsCatalogInMostPopularTable: catalog: 60193, numindb: 14
Update: records affected: 1



GetName: 60193 STARLINK-11172 [DTC]

Hit Count: updated at: Thu, 23 Jan 2025 14:18:47 GMT